�������l�o���
Date,Time,MP-1(��Sv/h),MP-2(��Sv/h),MP-3(��Sv/h),MP-4(��Sv/h),MP-5(��Sv/h),MP-6(��Sv/h),MP-7(��Sv/h),MP-8(��Sv/h),����,����(m/s),���J
2022/06/30,00:00,0.592,0.865,0.547,1.042,0.741,0.347,0.600,0.564,�k��,3.6,��
2022/06/30,00:10,0.593,0.865,0.546,1.044,0.741,0.347,0.602,0.565,���k��,3.0,��
2022/06/30,00:20,0.594,0.864,0.547,1.042,0.743,0.347,0.602,0.565,���k��,3.1,��
2022/06/30,00:30,0.594,0.863,0.546,1.041,0.742,0.347,0.601,0.565,���k��,3.2,��
2022/06/30,00:40,0.593,0.863,0.547,1.042,0.742,0.348,0.601,0.566,�k��,3.3,��
2022/06/30,00:50,0.594,0.862,0.547,1.042,0.743,0.347,0.601,0.565,���k��,2.6,��
2022/06/30,01:00,0.593,0.864,0.548,1.043,0.741,0.347,0.599,0.565,�k��,2.6,��
2022/06/30,01:10,0.593,0.865,0.547,1.041,0.743,0.348,0.601,0.564,�k��,2.6,��
2022/06/30,01:20,0.594,0.864,0.548,1.042,0.743,0.347,0.601,0.566,�k��,2.9,��
2022/06/30,01:30,0.593,0.862,0.548,1.042,0.743,0.348,0.602,0.565,�k��,3.3,��
2022/06/30,01:40,0.594,0.864,0.548,1.042,0.742,0.348,0.600,0.565,��,1.9,��
2022/06/30,01:50,0.593,0.863,0.546,1.044,0.742,0.347,0.601,0.565,���k��,2.9,��
2022/06/30,02:00,0.594,0.864,0.546,1.041,0.743,0.348,0.602,0.565,�k��,2.3,��
2022/06/30,02:10,0.594,0.863,0.545,1.042,0.740,0.346,0.601,0.565,�k��,3.0,��
2022/06/30,02:20,0.592,0.864,0.547,1.041,0.742,0.348,0.602,0.565,�k��,4.3,��
2022/06/30,02:30,0.594,0.864,0.548,1.042,0.740,0.348,0.602,0.565,���k��,4.9,��
2022/06/30,02:40,0.593,0.864,0.547,1.043,0.739,0.349,0.600,0.565,���k��,5.9,��
2022/06/30,02:50,0.593,0.864,0.547,1.041,0.741,0.347,0.602,0.565,���k��,6.3,��
2022/06/30,03:00,0.593,0.865,0.547,1.041,0.741,0.347,0.602,0.566,���k��,7.3,��
2022/06/30,03:10,0.593,0.864,0.548,1.043,0.740,0.347,0.601,0.566,���k��,6.6,��
2022/06/30,03:20,0.594,0.865,0.547,1.044,0.742,0.347,0.602,0.564,��,6.8,��
2022/06/30,03:30,0.594,0.864,0.547,1.040,0.742,0.346,0.603,0.564,���k��,5.7,��
2022/06/30,03:40,0.592,0.866,0.547,1.042,0.741,0.348,0.601,0.566,���k��,8.5,��
2022/06/30,03:50,0.594,0.866,0.548,1.044,0.741,0.349,0.602,0.565,���k��,8.0,��
2022/06/30,04:00,0.593,0.863,0.547,1.041,0.740,0.348,0.601,0.566,��,8.4,��
2022/06/30,04:10,0.594,0.864,0.547,1.042,0.740,0.347,0.601,0.565,���k��,7.4,��
2022/06/30,04:20,0.594,0.864,0.547,1.042,0.740,0.348,0.602,0.565,���k��,6.9,��
2022/06/30,04:30,0.593,0.863,0.547,1.041,0.739,0.348,0.601,0.564,��,8.3,��
2022/06/30,04:40,0.594,0.864,0.547,1.043,0.741,0.347,0.603,0.565,��,7.9,��
2022/06/30,04:50,0.594,0.866,0.547,1.042,0.741,0.348,0.600,0.566,��,8.4,��
2022/06/30,05:00,0.592,0.864,0.547,1.043,0.741,0.348,0.600,0.566,��,9.3,��
2022/06/30,05:10,0.593,0.864,0.548,1.045,0.741,0.348,0.602,0.565,��,9.7,��
2022/06/30,05:20,0.593,0.865,0.548,1.043,0.739,0.348,0.604,0.565,���k��,8.8,��
2022/06/30,05:30,0.593,0.865,0.548,1.044,0.740,0.348,0.603,0.566,��,9.2,��
2022/06/30,05:40,0.594,0.866,0.549,1.045,0.741,0.347,0.601,0.565,���k��,10.0,��
2022/06/30,05:50,0.592,0.864,0.547,1.043,0.742,0.348,0.602,0.565,��,8.7,��
2022/06/30,06:00,0.594,0.865,0.547,1.043,0.742,0.347,0.601,0.566,��,9.2,��
2022/06/30,06:10,0.594,0.865,0.548,1.044,0.744,0.348,0.602,0.566,���k��,10.0,��
2022/06/30,06:20,0.595,0.863,0.547,1.044,0.743,0.347,0.602,0.566,���k��,9.8,��
2022/06/30,06:30,0.596,0.866,0.549,1.044,0.741,0.348,0.602,0.565,���k��,10.2,��
2022/06/30,06:40,0.595,0.864,0.548,1.044,0.740,0.346,0.602,0.566,��,7.9,��
2022/06/30,06:50,0.594,0.867,0.549,1.044,0.742,0.348,0.603,0.567,���k��,7.1,��
2022/06/30,07:00,0.595,0.864,0.549,1.046,0.743,0.348,0.602,0.567,���k��,5.7,��
2022/06/30,07:10,0.594,0.863,0.547,1.044,0.740,0.348,0.602,0.567,���k��,5.5,��
2022/06/30,07:20,0.594,0.865,0.549,1.046,0.742,0.349,0.603,0.567,���k��,6.8,��
2022/06/30,07:30,0.594,0.862,0.549,1.046,0.741,0.347,0.603,0.566,��,6.5,��
2022/06/30,07:40,0.595,0.861,0.548,1.047,0.739,0.348,0.602,0.566,���k��,5.2,��
2022/06/30,07:50,0.595,0.863,0.549,1.047,0.740,0.347,0.603,0.567,��,5.8,��
2022/06/30,08:00,0.594,0.863,0.548,1.044,0.742,0.347,0.605,0.567,��,4.8,��
2022/06/30,08:10,0.594,0.863,0.547,1.044,0.744,0.349,0.603,0.567,��,4.9,��
2022/06/30,08:20,0.595,0.862,0.548,1.044,0.741,0.348,0.604,0.566,��,3.9,��
2022/06/30,08:30,0.594,0.861,0.546,1.047,0.742,0.348,0.604,0.567,���k��,3.2,��
2022/06/30,08:40,0.596,0.864,0.548,1.046,0.742,0.348,0.604,0.567,��,4.6,��
2022/06/30,08:50,0.596,0.863,0.548,1.050,0.744,0.349,0.603,0.566,��,5.1,��
2022/06/30,09:00,0.597,0.860,0.547,1.047,0.742,0.348,0.604,0.566,��,5.5,��
2022/06/30,09:10,0.596,0.864,0.546,1.048,0.743,0.347,0.605,0.565,��,7.6,��
2022/06/30,09:20,0.595,0.866,0.548,1.048,0.741,0.348,0.604,0.566,��,6.7,��
2022/06/30,09:30,0.596,0.867,0.545,1.046,0.743,0.350,0.605,0.566,���k��,6.1,��
2022/06/30,09:40,0.597,0.864,0.547,1.047,0.744,0.347,0.605,0.566,��,6.0,��
2022/06/30,09:50,0.596,0.867,0.550,1.049,0.745,0.346,0.604,0.567,��,7.1,��
2022/06/30,10:00,0.597,0.866,0.546,1.047,0.745,0.347,0.604,0.565,��,7.9,��
2022/06/30,10:10,0.598,0.867,0.545,1.050,0.745,0.349,0.603,0.567,��,6.6,��
2022/06/30,10:20,0.598,0.867,0.550,1.051,0.744,0.348,0.603,0.567,��,8.6,��
2022/06/30,10:30,0.600,0.868,0.550,1.051,0.745,0.348,0.601,0.567,��,7.4,��
2022/06/30,10:40,0.599,0.868,0.551,1.048,0.747,0.349,0.603,0.568,��,7.1,��
2022/06/30,10:50,0.601,0.864,0.552,1.049,0.749,0.349,0.603,0.568,���k��,7.8,��
2022/06/30,11:00,0.601,0.867,0.551,1.049,0.747,0.348,0.603,0.568,��,6.8,��
2022/06/30,11:10,0.601,0.865,0.551,1.048,0.750,0.350,0.603,0.569,���k��,4.3,��
2022/06/30,11:20,0.601,0.863,0.550,1.050,0.749,0.350,0.602,0.569,��,8.0,��
2022/06/30,11:30,0.602,0.868,0.553,1.048,0.748,0.348,0.602,0.568,��,7.1,��
2022/06/30,11:40,0.592,0.866,0.552,1.049,0.748,0.350,0.604,0.569,���k��,5.7,��
2022/06/30,11:50,0.601,0.866,0.552,1.046,0.751,0.349,0.603,0.569,�k��,4.5,��
2022/06/30,12:00,0.599,0.871,0.553,1.049,0.749,0.350,0.604,0.569,��,1.4,��
2022/06/30,12:10,0.598,0.870,0.552,1.047,0.750,0.350,0.605,0.569,��,2.6,��
2022/06/30,12:20,0.598,0.867,0.551,1.046,0.751,0.350,0.604,0.569,��,1.2,��
2022/06/30,12:30,0.597,0.869,0.553,1.050,0.749,0.350,0.606,0.569,���쓌,1.9,��
2022/06/30,12:40,0.598,0.872,0.552,1.051,0.750,0.350,0.605,0.570,��,2.5,��
2022/06/30,12:50,0.599,0.870,0.554,1.053,0.753,0.349,0.605,0.569,���쓌,3.2,��
2022/06/30,13:00,0.598,0.869,0.553,1.053,0.752,0.350,0.608,0.568,�쓌,3.7,��
2022/06/30,13:10,0.598,0.869,0.553,1.052,0.752,0.349,0.605,0.569,�쓌,2.9,��
2022/06/30,13:20,0.598,0.869,0.551,1.052,0.750,0.351,0.604,0.568,���쓌,4.7,��
2022/06/30,13:30,0.599,0.871,0.552,1.053,0.751,0.350,0.604,0.569,���쓌,3.7,��
2022/06/30,13:40,0.599,0.870,0.551,1.051,0.752,0.349,0.606,0.569,�쓌,4.7,��
2022/06/30,13:50,0.601,0.871,0.553,1.053,0.749,0.349,0.604,0.567,�쓌,6.1,��
2022/06/30,14:00,0.600,0.870,0.552,1.054,0.750,0.350,0.605,0.569,���쓌,4.4,��
2022/06/30,14:10,0.600,0.869,0.551,1.054,0.752,0.348,0.604,0.568,�쓌,5.9,��
2022/06/30,14:20,0.600,0.869,0.553,1.054,0.751,0.349,0.605,0.568,���쓌,3.8,��
2022/06/30,14:30,0.601,0.872,0.550,1.057,0.751,0.350,0.605,0.569,��,0.8,��
2022/06/30,14:40,0.599,0.871,0.551,1.054,0.751,0.349,0.604,0.568,��,0.6,��
2022/06/30,14:50,0.598,0.870,0.552,1.054,0.751,0.350,0.607,0.568,���쐼,1.5,��
2022/06/30,15:00,0.601,0.871,0.554,1.055,0.754,0.350,0.605,0.569,�k�k��,1.4,��
2022/06/30,15:10,0.599,0.870,0.554,1.056,0.751,0.349,0.605,0.569,�k�k��,1.7,��
2022/06/30,15:20,0.602,0.872,0.555,1.056,0.754,0.350,0.608,0.570,���쐼,5.6,��
2022/06/30,15:30,0.599,0.873,0.554,1.055,0.754,0.350,0.608,0.569,�k��,4.7,��
2022/06/30,15:40,0.601,0.873,0.555,1.056,0.754,0.350,0.608,0.569,�k�k��,2.0,��
2022/06/30,15:50,0.601,0.874,0.555,1.056,0.752,0.348,0.608,0.570,��,2.5,��
2022/06/30,16:00,0.602,0.876,0.554,1.055,0.752,0.348,0.607,0.568,���k��,3.2,��
2022/06/30,16:10,0.601,0.876,0.554,1.058,0.753,0.350,0.607,0.569,�k��,6.3,��
2022/06/30,16:20,0.601,0.873,0.555,1.058,0.754,0.349,0.606,0.569,���k��,4.6,��
2022/06/30,16:30,0.601,0.875,0.553,1.056,0.756,0.349,0.606,0.567,�k��,3.6,��
2022/06/30,16:40,0.602,0.877,0.555,1.055,0.752,0.350,0.609,0.569,���k��,3.0,��
2022/06/30,16:50,0.600,0.875,0.555,1.057,0.752,0.349,0.607,0.568,���k��,4.4,��
2022/06/30,17:00,0.600,0.877,0.555,1.056,0.752,0.348,0.605,0.569,�k�k��,3.1,��
2022/06/30,17:10,0.601,0.875,0.556,1.056,0.754,0.349,0.606,0.568,�k�k��,3.6,��
2022/06/30,17:20,0.598,0.872,0.553,1.052,0.752,0.348,0.605,0.567,�k,2.3,��
2022/06/30,17:30,0.599,0.874,0.552,1.055,0.750,0.348,0.604,0.566,�k�k��,2.9,��
2022/06/30,17:40,0.598,0.873,0.554,1.056,0.753,0.349,0.605,0.567,�k��,1.9,��
2022/06/30,17:50,0.599,0.875,0.553,1.055,0.749,0.348,0.604,0.568,�k�k��,0.9,��
2022/06/30,18:00,0.600,0.874,0.551,1.054,0.751,0.349,0.604,0.567,�k��,0.6,��
2022/06/30,18:10,0.601,0.872,0.553,1.053,0.750,0.348,0.604,0.567,�k�k��,0.6,��
2022/06/30,18:20,0.599,0.872,0.551,1.053,0.749,0.347,0.604,0.567,�k,1.4,��
2022/06/30,18:30,0.600,0.874,0.551,1.058,0.751,0.347,0.602,0.566,�k,1.2,��
2022/06/30,18:40,0.598,0.873,0.551,1.054,0.750,0.347,0.602,0.566,�k,2.0,��
2022/06/30,18:50,0.599,0.872,0.552,1.054,0.753,0.348,0.604,0.566,�k,2.9,��
2022/06/30,19:00,0.599,0.873,0.552,1.055,0.751,0.348,0.604,0.567,�k�k��,2.6,��
2022/06/30,19:10,0.598,0.871,0.551,1.056,0.751,0.347,0.603,0.566,�k��,2.6,��
2022/06/30,19:20,0.601,0.872,0.551,1.054,0.750,0.345,0.604,0.567,�k��,3.5,��
2022/06/30,19:30,0.599,0.872,0.551,1.054,0.753,0.347,0.602,0.567,�k��,3.5,��
2022/06/30,19:40,0.600,0.873,0.553,1.056,0.751,0.348,0.602,0.567,�k��,4.4,��
2022/06/30,19:50,0.598,0.873,0.553,1.055,0.752,0.348,0.603,0.568,�k��,4.1,��
2022/06/30,20:00,0.598,0.872,0.552,1.053,0.751,0.348,0.603,0.569,�k��,3.1,��
2022/06/30,20:10,0.598,0.873,0.552,1.056,0.751,0.348,0.603,0.570,�k�k��,3.8,��
2022/06/30,20:20,0.599,0.874,0.552,1.055,0.751,0.348,0.604,0.567,�k,4.5,��
2022/06/30,20:30,0.599,0.873,0.554,1.056,0.753,0.348,0.603,0.568,�k�k��,2.8,��
2022/06/30,20:40,0.600,0.876,0.554,1.056,0.751,0.347,0.603,0.568,�k�k��,2.3,��
2022/06/30,20:50,0.599,0.876,0.553,1.055,0.752,0.348,0.602,0.566,�k�k��,3.3,��
2022/06/30,21:00,0.598,0.873,0.552,1.055,0.753,0.348,0.603,0.568,�k�k��,1.7,��
2022/06/30,21:10,0.597,0.875,0.551,1.053,0.752,0.348,0.602,0.567,���k��,1.4,��
2022/06/30,21:20,0.598,0.873,0.551,1.055,0.752,0.348,0.601,0.568,�k��,1.5,��
2022/06/30,21:30,0.599,0.875,0.554,1.055,0.753,0.348,0.603,0.567,���k��,1.9,��
2022/06/30,21:40,0.598,0.874,0.553,1.054,0.754,0.347,0.603,0.567,��,1.2,��
2022/06/30,21:50,0.600,0.874,0.553,1.056,0.753,0.349,0.604,0.568,���쐼,1.4,��
2022/06/30,22:00,0.600,0.875,0.553,1.058,0.751,0.349,0.602,0.568,��쐼,2.0,��
2022/06/30,22:10,0.599,0.872,0.552,1.056,0.752,0.350,0.606,0.567,��쐼,2.6,��
2022/06/30,22:20,0.600,0.874,0.553,1.056,0.753,0.348,0.604,0.568,��쐼,3.0,��
2022/06/30,22:30,0.600,0.875,0.554,1.057,0.755,0.350,0.603,0.567,��쓌,2.9,��
2022/06/30,22:40,0.598,0.874,0.554,1.056,0.754,0.349,0.604,0.568,��쓌,2.0,��
2022/06/30,22:50,0.598,0.873,0.553,1.056,0.751,0.351,0.604,0.568,��,3.0,��
2022/06/30,23:00,0.600,0.873,0.553,1.059,0.752,0.349,0.604,0.567,��,2.6,��
2022/06/30,23:10,0.598,0.874,0.554,1.056,0.753,0.350,0.604,0.568,��,1.9,��
2022/06/30,23:20,0.598,0.875,0.553,1.056,0.753,0.348,0.603,0.567,��,2.5,��
2022/06/30,23:30,0.598,0.875,0.552,1.055,0.751,0.350,0.603,0.568,��,1.9,��
2022/06/30,23:40,0.598,0.875,0.552,1.056,0.753,0.350,0.603,0.568,��,2.3,��
2022/06/30,23:50,0.600,0.874,0.554,1.058,0.754,0.349,0.604,0.567,��쐼,2.0,��
